Regional Weather Roundup
Issued by NWS Upton, NY

Current Version | Previous Version | Graphics & Text | Print | Product List | Glossary Off
Versions: 1 2 3 4 5 6 7 8 9 10 11 12 13 14 15 16 17 18 19 20 21 22 23 24 25 26 27 28 29 30 31 32 33 34 35 36 37 38 39 40 41 42 43 44 45 46 47 48 49 50

000
ASUS41 KOKX 281605
RWROKX

REGIONAL WEATHER ROUNDUP
NATIONAL WEATHER SERVICE NEW YORK NY
1200 PM EDT MON JUL 28 2014

NOTE: "FAIR" INDICATES FEW OR NO CLOUDS BELOW 12,000 FEET WITH NO
SIGNIFICANT WEATHER AND/OR OBSTRUCTIONS TO VISIBILITY.

NYZ071-072-176-178-NJZ106-104-281700-
NEW YORK CITY METRO AREA


CITY           SKY/WX    TMP DP  RH WIND       PRES   REMARKS
CENTRAL PARK   PTSUNNY   76  65  68 W8        29.58S
LAGUARDIA APRT CLOUDY    77  64  64 W13G22    29.54S
KENNEDY INTL   PTSUNNY   80  67  64 W14       29.56S
NEWARK/LIBERTY MOSUNNY   80  65  59 SW16G22   29.55F
BRNX BOT. GARD   N/A     77  64  65 W18       29.57S
TETERBORO      MOSUNNY   81  65  58 SW13      29.53F
$$

NYZ177-179-078>081-281700-
LONG ISLAND NEW YORK

CITY           SKY/WX    TMP DP  RH WIND       PRES   REMARKS
FARMINGDALE    MOSUNNY   78  68  71 W9        29.55S
ISLIP          PTSUNNY   82  70  66 SW10      29.53S
SHIRLEY        CLOUDY    77  71  82 S10       29.55F
WESTHAMPTON    CLOUDY    77  70  79 S13       29.56F
MONTAUK POINT    N/A     75  70  84 VRB6      29.57F
$$

NYZ052-065-067-281700-
HUDSON VALLEY

CITY           SKY/WX    TMP DP  RH WIND       PRES   REMARKS
WHITE PLAINS   PTSUNNY   75  66  73 VRB6      29.54F
NEWBURGH       NOT AVBL
MONTGOMERY     CLOUDY    76  66  71 SW10      29.53S
POUGHKEEPSIE   PTSUNNY   79  67  66 SW8       29.51S
ALBANY         PTSUNNY   71  64  78 N3        29.52F
$$

NJZ001-105-106-008-010-013-015-019>022-104-281700-
NEW JERSEY

CITY           SKY/WX    TMP DP  RH WIND       PRES   REMARKS
NEWARK/LIBERTY MOSUNNY   80  65  59 SW16G22   29.55F
TETERBORO      MOSUNNY   81  65  58 SW13      29.53F
CALDWELL       MOSUNNY   77  63  61 W7        29.55F
MORRISTOWN     PTSUNNY   77  66  69 W12G18    29.57
SOMERVILLE     MOSUNNY   78  64  61 W8        29.55S
LINDEN         PTSUNNY   80  65  59 W10G17    29.57F
SUSSEX         CLOUDY    78  63  59 SW8       29.54F
ANDOVER          N/A     74  64  71 SW10G18   29.56F
TRENTON        MOSUNNY   78  64  61 MISG      29.58S
MILLVILLE      MOSUNNY   82  65  56 W16G23    29.61S
ATLANTIC CITY  MOSUNNY   82  66  58 W15G26    29.59S
WRIGHTSTOWN    MOSUNNY   80  67  63 W16       29.57S
TOMS RIVER     MOSUNNY   82  66  57 W14       29.58S
BELMAR         PTSUNNY   79  64  61 W12G24    29.58S
$$

PAZ047>061-062-071-281700-
EASTERN PENNSYLVANIA

CITY           SKY/WX    TMP DP  RH WIND       PRES   REMARKS
PHILADELPHIA   PTSUNNY   78  64  61 W10       29.60S
ALLENTOWN      PTSUNNY   76  62  62 W15G23    29.58S
SCRANTON       CLOUDY    71  63  75 SW12      29.58S
$$

CTZ002-004>006-009-010-012-RIZ004-006-007-MAZ004-011-015-281700-
SOUTHERN NEW ENGLAND
 IN CT

CITY           SKY/WX    TMP DP  RH WIND       PRES   REMARKS
BRADLEY INTL   PTSUNNY   77  67  71 SW8       29.52F
HARTFORD       CLOUDY    78  68  71 VRB7      29.52F
DANBURY        PTSUNNY   76  65  68 SW10      29.55F
WTRBRY/OXFORD  PTSUNNY   73  66  78 SW5       29.57
BRIDGEPORT     CLOUDY    78  70  76 SW12      29.53F
MERIDEN        CLOUDY    76  68  76 VRB5      29.53F
NEW HAVEN      PTSUNNY   77  69  76 S9        29.54F
CHESTER        PTSUNNY   75  68  78 S9        29.56F
GROTON         CLOUDY    72  69  90 S8        29.55F
WILLIMANTIC    CLOUDY    77  67  71 S12       29.55F

 IN RI

CITY           SKY/WX    TMP DP  RH WIND       PRES   REMARKS
PROVIDENCE     PTSUNNY   80  67  64 S14       29.57S
BLOCK ISLAND   CLOUDY    75  66  73 S12       29.58F
WESTERLY       CLOUDY    75  69  81 S13       29.57F

 IN MA

CITY           SKY/WX    TMP DP  RH WIND       PRES   REMARKS
BOSTON         MOSUNNY   80  68  66 S15G25    29.55S
WORCESTER      CLOUDY    74  66  76 S14       29.57F
WESTFIELD      CLOUDY    74  68  81 S9        29.52F
PROVINCETOWN   CLOUDY    75  72  88 CALM      29.59F
NANTUCKET      MOSUNNY   73  68  84 S16       29.60S
$$

ANZ330-335-338-340-345-350-353-355-281700-
COASTAL MARINE OBSERVATIONS


STATION/POSITION TIME  SKY/WX   TEMP    WIND        PRES    VSBY  WAVE
                                AIR SEA DIR/SP/G                  HT/PER
                 (UTC)          (F)     (DEG/KT/KT) (MB)    (MI)  (FT/S)
NY HARB ENTRANCE NOT AVBL
4S FIRE IS       NOT AVBL
23SW MTP         1600            74 72              1000.2          4/ 6
HUDSON CANYON    1600            75 74  240/ 14/ 17 1001.3          5/ 6
EXECUTION ROCKS  1600            75 72  250/  8/ 10   N/A
WESTERN LI SOUND 1600            74     230/ 10/ 12   N/A           1
CENTRAL LI SOUND 1500            74 72  200/  6/  8   N/A           1/ 3
EASTERN LI SOUND 1500            72 68  180/  6/  8   N/A
ROBBINS REEF     1600            75     290/ 15/ 19   N/A
$$


>>>>>>>>>>>>>>>>>>>>>>>>>>>> KEY <<<<<<<<<<<<<<<<<<<<<<<<<<<
>                                                          <
>     SKY/WX - SKY CONDITION/PRESENT WEATHER               <
>     TMP    - TEMPERATURE IN FAHRENHEIT                   <
>     DP     - DEWPOINT IN FAHRENHEIT                      <
>     RH     - RELATIVE HUMIDITY IN PERCENT                <
>     WIND   - DIRECTION AND SPEED IN MPH                  <
>     PRES   - MEAN SEA LEVEL PRESSURE IN INCHES OF HG     <
>     WCI    - WIND CHILL INDEX                            <
>     VSB    - VISIBILITY IN MILES                         <
>     HX     - HEAT INDEX                                  <
>     TC     - TEMPERATURE IN CELSIUS                      <
>     VRB    - VARIABLE WIND DIRECTION                     <
>                                                          <
>>>>>>>>>>>>>>>>>>>>>>>>>>>> KEY <<<<<<<<<<<<<<<<<<<<<<<<<<<





USA.gov is the U.S. government's official web portal to all federal, state and local government web resources and services.